Regional Weather Roundup
Issued by NWS

Home | Current Version | Previous Version | Text Only | Print | Product List | Glossary Off
Versions: 1 2 3 4 5 6 7 8 9 10 11 12 13 14 15 16 17 18 19 20 21 22 23 24 25 26 27 28 29 30 31 32 33 34 35 36 37 38 39 40 41 42 43 44 45 46 47 48 49 50

000
ASUS45 KCYS 281210
RWRWY

WYOMING REGIONAL WEATHER ROUNDUP
NATIONAL WEATHER SERVICE CHEYENNE WY
600 AM MDT THU AUG 28 2014

NOTE:  "FAIR" INDICATES FEW OR NO CLOUDS BELOW 12,000 FEET
WITH NO SIGNIFICANT WEATHER AND/OR OBSTRUCTIONS TO VISIBILITY.

WYZ001-281300-
YELLOWSTONE NATIONAL PARK

CITY           SKY/WX    TMP DP  RH WIND       PRES   REMARKS
LK YELLOWSTONE   N/A     36  35  96 CALM      30.39R
6HR MIN TEMP:  36; 6HR MAX TEMP:  44;

W YELLOWSTONE  NOT AVBL

$$
WYZ002>013-054>058-071-098>099-281300-
NORTHERN WYOMING

CITY           SKY/WX    TMP DP  RH WIND       PRES   REMARKS
JACKSON        CLEAR     41  39  93 CALM      30.31R
CODY           CLEAR     57  45  62 S3        30.15R
GREYBULL       CLEAR     53  50  89 E5        30.10R
6HR MIN TEMP:  52; 6HR MAX TEMP:  61;

WORLAND        CLEAR     53  50  89 S7        30.11R
6HR MIN TEMP:  52; 6HR MAX TEMP:  60;

SHERIDAN       PTCLDY    50  45  83 S3        30.06R
6HR MIN TEMP:  49; 6HR MAX TEMP:  59;

BUFFALO        PTCLDY    58  44  60 W12       30.11S
6HR MIN TEMP:  56; 6HR MAX TEMP:  61;

GILLETTE       CLOUDY    61  52  72 W6        30.06S
6HR MIN TEMP:  55; 6HR MAX TEMP:  62;

HULETT         FAIR      54  52  94 MISG      30.07
NEWCASTLE      FAIR      57  55  94 N5        30.06

$$
WYZ014>020-022>026-101>103-281300-
CENTRAL WYOMING

CITY           SKY/WX    TMP DP  RH WIND       PRES   REMARKS
BIG PINEY      FOG       39  38  96 CALM      30.32R VSB 1/2
6HR MIN TEMP:  40; 6HR MAX TEMP:  49;

PINEDALE       SUNNY     41  39  93 N3        30.32S
DUBOIS         FAIR      43  36  75 NW9       30.31R
LANDER         PTCLDY    51  46  83 E3        30.18S
6HR MIN TEMP:  49; 6HR MAX TEMP:  57;

RIVERTON       CLEAR     51  50  96 W5        30.19S
6HR MIN TEMP:  50; 6HR MAX TEMP:  57;

CASPER         CLOUDY    57  51  80 SW12      30.14S
6HR MIN TEMP:  55; 6HR MAX TEMP:  57; 6HR PCP: TRACE;

DOUGLAS        CLOUDY    58  55  90 NW12      30.10F
6HR MIN TEMP:  58; 6HR MAX TEMP:  59; 6HR PCP: TRACE;


$$
WYZ021-027>030-104>119-281300-
SOUTHERN WYOMING

CITY           SKY/WX    TMP DP  RH WIND       PRES   REMARKS
EVANSTON       CLEAR     46  45  96 SW7       30.35S
6HR MIN TEMP:  46; 6HR MAX TEMP:  48;

KEMMERER       SUNNY     45  43  93 NW6       30.35S
FORT BRIDGER   CLOUDY    52  47  83 W12       30.36S
ROCK SPRINGS   MOCLDY    48  45  89 W9        30.29S
6HR MIN TEMP:  48; 6HR MAX TEMP:  50; 6HR PCP: TRACE;

DIXON          CLOUDY    52  49  90 CALM      30.31R
RAWLINS        LGT RAIN  51  49  92 W10       30.24F
6HR MIN TEMP:  51; 6HR MAX TEMP:  52; 6HR PCP:  0.02;

SARATOGA       DRIZZLE   50  46  87 SW6       30.28S
LARAMIE        MOCLDY    44  42  93 NE6       30.23S
6HR MIN TEMP:  43; 6HR MAX TEMP:  47;

CHEYENNE       MOCLDY    52  44  74 NW9       30.14F
6HR MIN TEMP:  50; 6HR MAX TEMP:  54;

TORRINGTON     MOCLDY    58  57  97 W5        30.04S
6HR MIN TEMP:  57; 6HR MAX TEMP:  61;

PINE BLUFFS    FAIR      50  46  87 NW8       30.10S

$$


USA.gov is the U.S. government's official web portal to all federal, state and local government web resources and services.